sat.trackr.live / text

‹ back to catalog

QIANFAN-118

NORAD 68645 · 2026-075K

PAYLOAD ACTIVE UNKNOWN

§ Identity

Operator
Country
PRC
Launch date
2026-04-07
Launch site
WSC
Launch vehicle
Mass (kg)
RCS (m²)

External: N2YO · Heavens-Above · Gunter

§ Orbital elements

Epoch: 2026-05-24T18:47:58.229376Z

Period
106.04 min
Inclination
88.9870°
Eccentricity
0.0007495
Mean motion
13.57980142 rev/d
Perigee alt
1,037.5 km
Apogee alt
1,048.6 km
Semi-major
7,421.2 km
B*
-2.9371e+0
RAAN
323.4163°
Arg perigee
71.6653°
Mean anomaly
288.5316°
Rev number
663

§ Raw data

QIANFAN-1181 68645U 26075K   26144.78331284 -.01987422  00000+0 -29371+1 0  99982 68645  88.9870 323.4163 0007495  71.6653 288.5316 13.57980142  6634

JSON: /api/v1/satellites/68645 · /tle

For live sub-satellite position, see the globe view (requires WebGL).

§ Visibility from observer

Set your observer location to see the next 7 days of passes ≥ 10°. The values pass through the URL so the page stays shareable.

No JS? Fill the form by hand. The geolocation button needs JavaScript.